Weather History for Pula, Croatia

Change the Weather History Date:

Friday, November 9, 2012

  Actual Average Record
Temperature  
Mean Temperature 50 °F -  
Max Temperature 59 °F - - ()
Min Temperature 41 °F - - ()
Degree Days  
Heating Degree Days 15    
Moisture  
Dew Point 44 °F    
Average Humidity 80    
Maximum Humidity 93    
Minimum Humidity 55    
Precipitation  
Precipitation 0.00 in - - ()
Sea Level Pressure  
Sea Level Pressure 30.10 in    
Wind  
Wind Speed 3 mph ()    
Max Wind Speed 8 mph    
Max Gust Speed -    
Visibility 8.1 miles    
Events      
T = Trace of Precipitation, MM = Missing Value Source: Averaged Metar Reports

Daily Weather History Graph

Daily Weather History Graph

Search for Another Location

Airport:

Trip Planner

Search our weather history database for the weather conditions in past years. The results will help you decide how hot, cold, wet, or windy it might be!

Date:

Astronomy

Nov. 09, 2012 Rise Set
Actual Time 6:53 AM CET 4:41 PM CET
Civil Twilight 6:22 AM CET 5:13 PM CET
Nautical Twilight 5:47 AM CET 5:48 PM CET
Astronomical Twilight 5:13 AM CET 6:22 PM CET
Moon 1:21 AM CET (11/9) 1:56 PM CET (11/9)
Length of Visible Light 10h 50m
Length of Day
9h 48m
Waning Crescent, 25% of the Moon is Illuminated
Nov 9
Waning Crescent
Nov 13
New
Nov 20
First Quarter
Nov 28
Full
Dec 6
Last Quarter

Hourly Weather History & Observations

Time (CET) Temp. Windchill Dew Point Humidity Pressure Visibility Wind Dir Wind Speed Gust Speed Precip Events Conditions
12:00 AM 44.6 °F - 41.0 °F 87% 30.12 in - Variable 2.3 mph - N/A   Clear
12:30 AM 41.0 °F 38.0 °F 37.4 °F 87% 30.09 in - ENE 4.6 mph - N/A   Clear
1:00 AM 43 °F - 40 °F 87% 30.13 in 12 mi NNE 2.2 mph - -  
1:00 AM 42.8 °F - 41.0 °F 93% 30.09 in - Variable 2.3 mph - N/A   Clear
1:30 AM 44.6 °F 42.2 °F 41.0 °F 87% 30.09 in - NE 4.6 mph - N/A   Clear
2:00 AM 44.6 °F 42.2 °F 42.8 °F 93% 30.09 in - ENE 4.6 mph - N/A   Clear
2:30 AM 44.6 °F 42.2 °F 42.8 °F 93% 30.09 in - NE 4.6 mph - N/A   Clear
3:00 AM 46.4 °F 44.3 °F 42.8 °F 87% 30.09 in - ENE 4.6 mph - N/A   Clear
3:30 AM 46.4 °F 44.3 °F 42.8 °F 87% 30.06 in - ENE 4.6 mph - N/A   Clear
4:00 AM 46 °F - 44 °F 88% 30.10 in 12 mi ENE 4.5 mph - -   Clear
4:00 AM 46.4 °F 44.3 °F 44.6 °F 93% 30.06 in - ENE 4.6 mph - N/A   Clear
4:30 AM 46.4 °F - 42.8 °F 87% 30.06 in - Variable 2.3 mph - N/A   Clear
5:00 AM 45 °F - 42 °F 86% 30.09 in 12 mi ENE 2.2 mph - -  
5:00 AM 44.6 °F - 42.8 °F 93% 30.06 in - Variable 2.3 mph - N/A   Clear
5:30 AM 44.6 °F - 42.8 °F 93% 30.06 in - Variable 2.3 mph - N/A   Clear
6:00 AM 46 °F - 43 °F 87% 30.10 in 12 mi ENE 4.5 mph - -   Clear
6:00 AM 46.4 °F 44.3 °F 42.8 °F 87% 30.06 in - ENE 4.6 mph - N/A   Clear
6:30 AM 44.6 °F 42.2 °F 42.8 °F 93% 30.09 in - NE 4.6 mph - N/A   Clear
7:00 AM 46 °F - 43 °F 87% 30.11 in 9 mi ENE 4.5 mph - -   Scattered Clouds
7:00 AM 46.4 °F 44.3 °F 42.8 °F 87% 30.09 in - ENE 4.6 mph - N/A   Clear
7:30 AM 46.4 °F - 42.8 °F 87% 30.09 in - Variable 2.3 mph - N/A   Clear
8:00 AM 46.4 °F - 44.6 °F 93% 30.12 in - Variable 2.3 mph - N/A   Clear
8:30 AM 51.8 °F - 48.2 °F 88% 30.12 in - Variable 1.2 mph - N/A   Clear
9:00 AM 55.4 °F - 50.0 °F 82% 30.12 in - Variable 1.2 mph - N/A   Clear
9:30 AM 57.2 °F - 48.2 °F 72% 30.12 in - Variable 1.2 mph - N/A   Clear
10:00 AM 58 °F - 47 °F 58% 30.14 in 8 mi West 2.2 mph - -  
10:00 AM 57.2 °F - 46.4 °F 67% 30.12 in - Variable 2.3 mph - N/A   Clear
10:30 AM 59.0 °F - 48.2 °F 67% 30.12 in - Variable 2.3 mph - N/A   Clear
11:00 AM 59.0 °F - 46.4 °F 63% 30.12 in - SW 4.6 mph - N/A   Clear
11:30 AM 59.0 °F - 48.2 °F 67% 30.12 in 6.2 mi WSW 4.6 mph - N/A   Partly Cloudy
12:00 PM 59.0 °F - 46.4 °F 63% 30.12 in 6.2 mi West 5.8 mph - N/A   Scattered Clouds
12:30 PM 59.0 °F - 46.4 °F 63% 30.12 in 6.2 mi WSW 8.1 mph - N/A   Scattered Clouds
1:00 PM 59 °F - 47 °F 55% 30.12 in 8 mi West 6.7 mph - -   Scattered Clouds
1:00 PM 59.0 °F - 46.4 °F 63% 30.12 in 6.2 mi West 6.9 mph - N/A   Partly Cloudy
1:30 PM 57.2 °F - 46.4 °F 67% 30.09 in 6.2 mi West 5.8 mph - N/A   Partly Cloudy
2:00 PM 59.0 °F - 46.4 °F 63% 30.09 in 6.2 mi West 6.9 mph - N/A   Partly Cloudy
2:30 PM 57.2 °F - 46.4 °F 67% 30.09 in 6.2 mi West 8.1 mph - N/A   Partly Cloudy
3:00 PM 57.2 °F - 46.4 °F 67% 30.09 in - West 5.8 mph - N/A   Clear
3:30 PM 55.4 °F - 46.4 °F 72% 30.09 in - West 6.9 mph - N/A   Clear
4:00 PM 55 °F - 46 °F 62% 30.12 in 8 mi West 4.5 mph - -   Clear
4:00 PM 55.4 °F - 46.4 °F 72% 30.09 in - West 4.6 mph - N/A   Clear
4:30 PM 53.6 °F - 44.6 °F 72% 30.09 in - Variable 2.3 mph - N/A   Clear
5:00 PM 50.0 °F - 44.6 °F 82% 30.09 in - Calm Calm - N/A   Clear
5:30 PM 48.2 °F - 42.8 °F 82% 30.09 in - Variable 2.3 mph - N/A   Clear
6:00 PM 48.2 °F - 44.6 °F 87% 30.12 in - North 5.8 mph - N/A   Clear
6:30 PM 48.2 °F - 42.8 °F 82% 30.12 in - North 5.8 mph - N/A   Clear
7:00 PM 48 °F - 43 °F 77% 30.13 in 8 mi North 6.7 mph - -   Clear
7:00 PM 48.2 °F - 42.8 °F 82% 30.12 in - North 5.8 mph - N/A   Clear
7:30 PM 46.4 °F - 41.0 °F 81% 30.12 in - Variable 2.3 mph - N/A   Clear
8:00 PM 44.6 °F 42.2 °F 41.0 °F 87% 30.09 in - NNE 4.6 mph - N/A   Clear
8:30 PM 44.6 °F 43.1 °F 41.0 °F 87% 30.12 in - Variable 3.5 mph - N/A   Clear
9:00 PM 46.4 °F 45.2 °F 42.8 °F 87% 30.12 in - Variable 3.5 mph - N/A   Clear
9:30 PM 46.4 °F - 42.8 °F 87% 30.12 in - Variable 2.3 mph - N/A   Clear
10:00 PM 47 °F - 42 °F 79% 30.14 in 6 mi NE 2.2 mph - -   Clear
10:00 PM 46.4 °F 45.2 °F 42.8 °F 87% 30.12 in - Variable 3.5 mph - N/A   Clear
10:30 PM 46.4 °F - 42.8 °F 87% 30.12 in - Variable 2.3 mph - N/A   Clear
11:00 PM 46.4 °F 45.2 °F 42.8 °F 87% 30.09 in - Variable 3.5 mph - N/A   Clear
11:30 PM 44.6 °F - 41.0 °F 87% 30.09 in - Variable 2.3 mph - N/A   Clear